Location: Mount Kobau Star Party
(49.1167°N, 119.7333°W)
Time: 07:49:58
(UTC-07:00)

ACS3 Solar Sail - Pass Details

Date: 26 June 2024
Orbit: 992 x 1023 km, 97.4° (Epoch: 12 July)

Event Time Altitude Azimuth Distance (km) Brightness Sun altitude
Exits shadow 21:50:52 - 152° (SSE) 3,131 6.8 -6.0°
Reaches altitude 10° 21:51:52 10° 151° (SSE) 2,755 6.5 -6.1°
Maximum altitude 21:57:58 64° 72° (ENE) 1,097 5.0 -6.8°
Drops below altitude 10° 22:04:06 10° 352° (N) 2,765 8.2 -7.5°
Sets 22:06:36 0° 350° (N) 3,719 9.0 -7.7°
